Location: Newark
(46.7000°N, 60.6000°W)
Time: 10:15:10
(UTC+00:00)

Transit 2A Rocket - Pass Details

Date: 01 November 2020
Orbit: 588 x 915 km, 66.7° (Epoch: 23 November)

Event Time Altitude Azimuth Distance (km) Brightness Sun altitude
Rises 14:40:35 0° 259° (WSW) 3,536 8.4 26.9°
Reaches altitude 10° 14:43:43 10° 273° (W) 2,577 7.6 27.0°
Maximum altitude 14:48:22 23° 324° (NW) 1,791 6.6 27.2°
Drops below altitude 10° 14:52:50 10° 15° (NNE) 2,466 7.2 27.4°
Sets 14:55:46 0° 31° (NNE) 3,347 7.9 27.6°
